TimeMDT,TemperatureF,Dew PointF,Humidity,Sea Level PressureIn,VisibilityMPH,Wind Direction,Wind SpeedMPH,Gust SpeedMPH,PrecipitationIn,Events,Conditions,WindDirDegrees,DateUTC
12:53 AM,36.0,24.1,62,30.22,10.0,South,9.2,-,N/A,,Overcast,170,2013-04-02 06:53:00
1:53 AM,35.1,23.0,61,30.22,10.0,South,18.4,-,N/A,,Overcast,170,2013-04-02 07:53:00
2:53 AM,34.0,23.0,64,30.22,10.0,South,12.7,-,N/A,,Overcast,170,2013-04-02 08:53:00
3:53 AM,34.0,21.9,61,30.19,10.0,South,10.4,-,N/A,,Overcast,190,2013-04-02 09:53:00
4:53 AM,34.0,21.9,61,30.19,10.0,South,13.8,-,N/A,,Overcast,190,2013-04-02 10:53:00
5:53 AM,34.0,23.0,64,30.19,10.0,South,11.5,-,N/A,,Overcast,190,2013-04-02 11:53:00
6:53 AM,32.0,27.0,82,30.20,10.0,SSW,11.5,-,N/A,,Overcast,200,2013-04-02 12:53:00
7:53 AM,32.0,27.0,82,30.25,10.0,SSW,11.5,-,N/A,,Overcast,210,2013-04-02 13:53:00
8:53 AM,33.1,28.9,85,30.26,10.0,SSW,13.8,-,N/A,,Overcast,200,2013-04-02 14:53:00
9:31 AM,33.8,28.4,81,30.21,10.0,SSW,10.4,-,N/A,,Overcast,200,2013-04-02 15:31:00
9:53 AM,34.0,28.9,82,30.26,10.0,SSW,11.5,-,N/A,,Overcast,200,2013-04-02 15:53:00
10:22 AM,33.8,28.4,81,30.21,10.0,South,12.7,-,N/A,,Overcast,190,2013-04-02 16:22:00
10:53 AM,35.1,28.0,76,30.27,10.0,South,11.5,-,N/A,,Overcast,180,2013-04-02 16:53:00
11:53 AM,35.1,28.9,78,30.26,10.0,South,12.7,-,N/A,,Overcast,180,2013-04-02 17:53:00
12:18 PM,35.6,30.2,81,30.20,10.0,South,13.8,-,N/A,,Overcast,180,2013-04-02 18:18:00
12:53 PM,37.0,30.0,76,30.22,10.0,South,13.8,-,N/A,,Overcast,170,2013-04-02 18:53:00
1:53 PM,37.0,30.0,76,30.23,10.0,South,10.4,-,N/A,,Overcast,170,2013-04-02 19:53:00
2:53 PM,37.0,30.9,79,30.22,10.0,SSE,10.4,-,N/A,,Overcast,160,2013-04-02 20:53:00
3:30 PM,39.2,30.2,70,30.17,10.0,SSE,8.1,-,N/A,,Overcast,160,2013-04-02 21:30:00
3:53 PM,39.0,30.0,70,30.20,10.0,SSE,11.5,-,N/A,,Overcast,160,2013-04-02 21:53:00
4:27 PM,39.2,30.2,70,30.16,10.0,SSE,11.5,-,N/A,,Overcast,160,2013-04-02 22:27:00
4:53 PM,39.0,30.0,70,30.20,10.0,SSE,10.4,-,N/A,,Overcast,150,2013-04-02 22:53:00
5:53 PM,39.0,28.9,67,30.20,10.0,SSE,9.2,-,N/A,,Overcast,150,2013-04-02 23:53:00
6:53 PM,37.9,28.0,68,30.21,10.0,South,6.9,-,N/A,,Overcast,170,2013-04-03 00:53:00
7:53 PM,37.0,27.0,67,30.23,10.0,SSE,4.6,-,N/A,,Overcast,150,2013-04-03 01:53:00
8:53 PM,36.0,28.0,73,30.25,10.0,South,6.9,-,0.00,Snow,Light Snow,180,2013-04-03 02:53:00
9:53 PM,34.0,28.0,79,30.27,9.0,Calm,Calm,-,0.01,,Overcast,0,2013-04-03 03:53:00
10:53 PM,34.0,30.0,85,30.26,10.0,Calm,Calm,-,N/A,,Overcast,0,2013-04-03 04:53:00
11:53 PM,35.1,28.9,78,30.26,10.0,South,5.8,-,N/A,,Overcast,190,2013-04-03 05:53:00